FW4624 Weather Reports


time (UTC)temp
C
wind
direction
speed
KPH
gust
KPH
rain 1hr
cm
rain 24hr
cm
rain mn
cm
humidity
%
barometer
mb
20260902004048 12 342 0.0 0.0 0.00 0.00 0.00 92 1021.5
20260902003547 12 342 0.0 0.0 0.00 0.00 0.00 92 1021.4
20260902003047 12 342 0.0 0.0 0.00 0.00 0.00 92 1021.5
20260902002549 12 342 0.0 0.0 0.00 0.00 0.00 92 1021.8
20260902002046 12 342 0.0 0.0 0.00 0.00 0.00 92 1021.9
20260902001556 12 342 0.0 0.0 0.00 0.00 0.00 92 1021.8
20260902001046 12 342 0.0 0.0 0.00 0.00 0.00 92 1021.9
20260902000547 12 342 0.0 0.0 0.00 0.00 0.00 92 1021.9
20260902000046 12 342 0.0 0.0 0.00 0.00 0.00 92 1021.9
20260901235545 12 342 0.0 0.0 0.00 0.00 0.00 92 1021.9
20260901235044 12 342 0.0 0.0 0.00 0.00 0.00 92 1021.9
20260901234545 12 342 0.0 0.0 0.00 0.00 0.00 91 1021.9
20260901234044 12 342 0.0 0.0 0.00 0.00 0.00 91 1021.8
20260901233545 12 342 0.0 0.0 0.00 0.00 0.00 92 1022.0
20260901233054 12 342 0.0 0.0 0.00 0.00 0.00 91 1022.0
20260901232546 12 342 0.0 0.0 0.00 0.00 0.00 91 1022.0
20260901232042 12 342 0.0 0.0 0.00 0.00 0.00 91 1021.9
20260901231543 12 342 0.0 0.0 0.00 0.00 0.00 91 1021.9
20260901231040 12 342 0.0 0.0 0.00 0.00 0.00 90 1022.0
20260901230540 12 342 0.0 0.0 0.00 0.00 0.00 90 1021.8
20260901230040 12 342 0.0 0.0 0.00 0.00 0.00 90 1021.7
20260901225538 12 342 0.0 0.0 0.00 0.00 0.00 88 1021.7
20260901225038 13 342 0.0 0.0 0.00 0.00 0.00 87 1021.7
20260901224537 13 342 0.0 0.0 0.00 0.00 0.00 88 1021.5
20260901224036 13 342 0.0 0.0 0.00 0.00 0.00 88 1021.7
20260901223536 13 342 0.0 0.0 0.00 0.00 0.00 88 1021.7
20260901223036 13 342 0.0 0.0 0.00 0.00 0.00 88 1021.7
20260901222535 13 342 0.0 0.0 0.00 0.00 0.00 87 1021.6
20260901222035 13 342 0.0 0.0 0.00 0.00 0.00 87 1021.7
20260901221535 14 342 0.0 0.0 0.00 0.00 0.00 87 1021.6
20260901221033 14 342 0.0 0.0 0.00 0.00 0.00 88 1021.6
20260901220533 14 342 0.0 0.0 0.00 0.00 0.00 87 1021.5
20260901220035 14 342 0.0 3.2 0.00 0.00 0.00 86 1021.5
20260901215531 15 342 0.0 3.2 0.00 0.00 0.00 86 1021.4
20260901215031 15 342 0.0 1.6 0.00 0.00 0.00 86 1021.4
20260901214537 15 342 0.0 3.2 0.00 0.00 0.00 86 1021.4
20260901214030 15 342 0.0 3.2 0.00 0.00 0.00 86 1021.5
20260901213530 15 342 1.6 3.2 0.00 0.00 0.00 86 1021.4
20260901213030 15 342 0.0 3.2 0.00 0.00 0.00 86 1021.4
20260901212530 15 342 0.0 3.2 0.00 0.00 0.00 86 1021.4
20260901212030 15 342 0.0 6.4 0.00 0.00 0.00 86 1021.4
20260901211530 15 342 0.0 3.2 0.00 0.00 0.00 87 1021.4
20260901211030 15 342 0.0 0.0 0.00 0.00 0.00 88 1021.4
20260901210530 14 342 0.0 0.0 0.00 0.00 0.00 87 1021.4
20260901210029 14 342 0.0 1.6 0.00 0.00 0.00 87 1021.4
20260901205529 14 342 0.0 1.6 0.00 0.00 0.00 86 1021.5
20260901205029 15 342 0.0 0.0 0.00 0.00 0.00 85 1021.5
20260901204528 15 342 0.0 1.6 0.00 0.00 0.00 84 1021.5
20260901204029 15 342 0.0 1.6 0.00 0.00 0.00 84 1021.6
20260901203529 16 342 0.0 0.0 0.00 0.00 0.00 84 1021.5
20260901203035 16 342 0.0 0.0 0.00 0.00 0.00 84 1021.5
20260901202529 16 342 0.0 1.6 0.00 0.00 0.00 83 1021.6
20260901202029 16 342 0.0 4.8 0.00 0.00 0.00 83 1021.6
20260901201528 16 342 1.6 4.8 0.00 0.00 0.00 83 1021.6
20260901201028 16 341 0.0 3.2 0.00 0.00 0.00 82 1021.7
20260901200527 16 341 1.6 3.2 0.00 0.00 0.00 80 1021.5
20260901200034 16 341 0.0 4.8 0.00 0.00 0.00 80 1021.6
20260901195528 16 341 1.6 4.8 0.00 0.00 0.00 80 1021.5
20260901195028 17 341 1.6 3.2 0.00 0.00 0.00 80 1021.5
20260901194527 17 341 1.6 3.2 0.00 0.00 0.00 79 1021.4
20260901194027 17 341 0.0 3.2 0.00 0.00 0.00 79 1021.3
20260901193528 17 341 0.0 3.2 0.00 0.00 0.00 78 1021.2
20260901193026 17 341 0.0 3.2 0.00 0.00 0.00 77 1021.3
20260901192526 17 341 0.0 3.2 0.00 0.00 0.00 76 1021.4
20260901192027 17 341 0.0 4.8 0.00 0.00 0.00 75 1021.3
20260901191527 18 341 3.2 4.8 0.00 0.00 0.00 74 1021.3
20260901191026 18 341 1.6 3.2 0.00 0.00 0.00 73 1021.2
20260901190528 18 341 0.0 3.2 0.00 0.00 0.00 73 1021.1
20260901190030 18 341 1.6 3.2 0.00 0.00 0.00 72 1021.1
20260901185526 18 341 0.0 3.2 0.00 0.00 0.00 72 1021.1
20260901185028 19 341 0.0 3.2 0.00 0.00 0.00 71 1020.9
20260901184525 19 341 1.6 4.8 0.00 0.00 0.00 70 1020.9
20260901184026 19 341 1.6 4.8 0.00 0.00 0.00 69 1020.8
20260901183529 19 341 1.6 4.8 0.00 0.00 0.00 69 1020.8
20260901183028 20 341 1.6 6.4 0.00 0.00 0.00 69 1020.8
20260901182528 20 341 3.2 6.4 0.00 0.00 0.00 69 1020.7
20260901182024 20 341 3.2 6.4 0.00 0.00 0.00 69 1020.6
20260901181528 20 341 3.2 6.4 0.00 0.00 0.00 68 1020.5
20260901181025 20 340 3.2 6.4 0.00 0.00 0.00 68 1020.5
20260901180524 20 340 3.2 8.0 0.00 0.00 0.00 67 1020.5
20260901180024 20 339 3.2 9.7 0.00 0.00 0.00 66 1020.5
20260901175527 20 339 3.2 9.7 0.00 0.03 0.00 66 1020.4
20260901175023 21 339 4.8 14.5 0.00 0.03 0.00 65 1020.4
20260901174524 21 334 4.8 14.5 0.00 0.03 0.00 64 1020.5
20260901174024 21 347 3.2 12.9 0.00 0.03 0.00 63 1020.4
20260901173527 21 13 6.4 12.9 0.00 0.03 0.00 61 1020.3
20260901173023 21 331 4.8 17.7 0.00 0.03 0.00 60 1020.3
20260901172525 22 342 3.2 17.7 0.00 0.03 0.00 54 1020.2
20260901172023 22 246 1.6 8.0 0.00 0.03 0.00 47 1020.1
20260901171523 22 246 1.6 3.2 0.00 0.03 0.00 47 1020.0
20260901171022 22 246 1.6 11.3 0.00 0.03 0.00 45 1020.0
20260901170522 22 246 4.8 11.3 0.00 0.03 0.00 46 1019.9
20260901170023 22 246 4.8 9.7 0.00 0.03 0.00 45 1019.9
20260901165522 23 254 1.6 8.0 0.00 0.03 0.00 44 1019.9
20260901165022 23 254 1.6 11.3 0.00 0.03 0.00 45 1020.0
20260901164522 23 254 3.2 12.9 0.00 0.03 0.00 43 1020.0
20260901164022 23 255 4.8 14.5 0.00 0.03 0.00 44 1020.0
20260901163526 23 241 3.2 14.5 0.00 0.03 0.00 45 1019.9
20260901163022 23 234 4.8 12.9 0.00 0.03 0.00 42 1020.0
20260901162521 24 273 1.6 6.4 0.00 0.03 0.00 42 1019.9
20260901162021 24 275 3.2 6.4 0.00 0.03 0.00 41 1019.9
20260901161521 24 292 1.6 6.4 0.00 0.03 0.00 42 1020.0
20260901161025 24 257 3.2 8.0 0.00 0.03 0.00 41 1019.9
20260901160520 24 256 3.2 12.9 0.00 0.03 0.00 42 1019.9
20260901160020 24 255 3.2 19.3 0.00 0.03 0.00 42 1020.0
20260901155520 24 260 9.7 19.3 0.00 0.03 0.00 41 1019.9
20260901155020 25 244 3.2 11.3 0.00 0.03 0.00 39 1020.0
20260901154527 25 257 4.8 12.9 0.00 0.03 0.00 41 1020.1
20260901154019 24 259 4.8 19.3 0.00 0.03 0.00 41 1020.1
20260901153520 23 252 12.9 19.3 0.00 0.03 0.00 44 1020.1
20260901153030 24 246 4.8 17.7 0.00 0.03 0.00 45 1020.2
20260901152519 24 254 8.0 20.9 0.00 0.03 0.00 46 1020.1
20260901152019 23 234 12.9 20.9 0.00 0.03 0.00 46 1020.1
20260901151520 24 248 11.3 22.5 0.00 0.03 0.00 45 1020.1
20260901151018 24 252 9.7 19.3 0.00 0.03 0.00 47 1020.0
20260901150520 24 242 6.4 17.7 0.00 0.03 0.00 44 1020.1
20260901150020 25 246 8.0 17.7 0.00 0.03 0.00 43 1020.1
20260901145518 24 243 8.0 17.7 0.00 0.03 0.00 46 1020.1
20260901145018 24 250 4.8 19.3 0.00 0.03 0.00 44 1020.0
20260901144525 24 250 12.9 19.3 0.00 0.03 0.00 44 1020.0
20260901144020 25 244 8.0 16.1 0.00 0.03 0.00 42 1020.2
20260901143517 25 231 4.8 20.9 0.00 0.03 0.00 48 1020.1
20260901143018 24 250 8.0 20.9 0.00 0.03 0.00 47 1020.1
20260901142517 25 268 8.0 19.3 0.00 0.03 0.00 43 1020.3
20260901142020 25 279 3.2 16.1 0.00 0.03 0.00 43 1020.3
20260901141516 25 252 8.0 16.1 0.00 0.03 0.00 45 1020.3
20260901141018 24 231 4.8 16.1 0.00 0.03 0.00 48 1020.3
20260901140519 25 241 8.0 14.5 0.00 0.03 0.00 47 1020.4
20260901140015 25 275 4.8 20.9 0.00 0.03 0.00 47 1020.4
20260901135517 24 258 9.7 20.9 0.00 0.03 0.00 50 1020.5
20260901135014 24 247 3.2 19.3 0.00 0.03 0.00 47 1020.5
20260901134514 24 259 9.7 17.7 0.00 0.03 0.00 51 1020.5
20260901134014 24 269 3.2 20.9 0.00 0.03 0.00 49 1020.6
20260901133514 23 232 6.4 22.5 0.00 0.03 0.00 51 1020.6
20260901133014 23 234 11.3 22.5 0.00 0.03 0.00 51 1020.5
20260901132514 25 254 6.4 19.3 0.00 0.03 0.00 49 1020.6
20260901132014 25 267 3.2 19.3 0.00 0.03 0.00 49 1020.6
20260901131512 25 321 3.2 12.9 0.00 0.03 0.00 51 1020.6
20260901131011 25 334 3.2 17.7 0.00 0.03 0.00 49 1020.6
20260901130511 23 259 3.2 22.5 0.00 0.03 0.00 51 1020.7
20260901130010 24 243 6.4 12.9 0.00 0.03 0.00 52 1020.7
20260901125514 24 252 3.2 20.9 0.00 0.03 0.00 52 1020.7
20260901125010 24 314 4.8 20.9 0.00 0.03 0.00 55 1020.6
20260901124514 24 276 1.6 6.4 0.00 0.03 0.00 54 1020.8
20260901124012 23 280 1.6 6.4 0.00 0.03 0.00 59 1020.8
20260901123509 22 322 0.0 4.8 0.00 0.03 0.00 60 1020.8
20260901123006 22 321 1.6 8.0 0.00 0.03 0.00 62 1020.9
20260901122507 21 320 4.8 8.0 0.00 0.03 0.00 62 1020.9
20260901122005 21 315 3.2 6.4 0.00 0.03 0.00 63 1021.0
20260901121505 21 315 1.6 8.0 0.00 0.03 0.00 64 1021.0
20260901121005 21 279 4.8 9.7 0.00 0.03 0.00 64 1020.9
20260901120505 21 239 1.6 8.0 0.00 0.03 0.00 65 1020.9
20260901120007 21 239 3.2 11.3 0.00 0.03 0.00 64 1020.9
20260901115505 22 243 6.4 12.9 0.00 0.03 0.00 63 1021.0
20260901115004 22 249 1.6 12.9 0.00 0.03 0.00 66 1020.9
20260901114504 21 248 3.2 12.9 0.00 0.03 0.00 66 1021.0
20260901114004 21 215 8.0 16.1 0.00 0.03 0.00 66 1021.0
20260901113504 22 205 8.0 17.7 0.00 0.03 0.00 66 1021.0
20260901113004 22 226 9.7 17.7 0.00 0.03 0.00 63 1021.1
20260901112503 22 190 8.0 16.1 0.00 0.03 0.00 65 1021.1
20260901112003 22 219 4.8 19.3 0.00 0.03 0.00 65 1021.1
20260901111503 22 240 9.7 19.3 0.00 0.03 0.00 67 1021.1
20260901111003 21 229 9.7 17.7 0.00 0.03 0.00 68 1021.3
20260901110502 21 182 11.3 17.7 0.00 0.03 0.00 67 1021.2
20260901110004 21 205 9.7 19.3 0.00 0.03 0.00 66 1021.3
20260901105503 22 237 9.7 19.3 0.00 0.03 0.00 66 1021.3
20260901105005 22 230 12.9 17.7 0.00 0.03 0.00 66 1021.3
20260901104501 22 207 8.0 16.1 0.00 0.03 0.00 68 1021.4
20260901104100 21 221 8.0 16.1 0.00 0.03 0.00 70 1021.3
20260901103601 20 206 4.8 16.1 0.00 0.03 0.00 72 1021.3
20260901103100 20 226 8.0 19.3 0.00 0.03 0.00 71 1021.3
20260901102600 21 210 6.4 14.5 0.00 0.03 0.00 70 1021.3
20260901102059 21 172 4.8 11.3 0.00 0.03 0.00 70 1021.3
20260901101611 21 213 6.4 11.3 0.00 0.03 0.00 69 1021.3
20260901101102 21 201 4.8 9.7 0.00 0.03 0.00 69 1021.4
20260901100601 22 186 3.2 8.0 0.00 0.03 0.00 68 1021.5
20260901100100 21 180 0.0 11.3 0.00 0.03 0.00 67 1021.5
20260901095558 22 182 3.2 12.9 0.00 0.03 0.00 69 1021.6
20260901095059 21 203 6.4 12.9 0.00 0.03 0.00 69 1021.5
20260901094558 21 146 6.4 14.5 0.00 0.03 0.00 68 1021.6
20260901094057 21 175 8.0 14.5 0.00 0.03 0.00 69 1021.6
20260901093558 21 198 6.4 14.5 0.00 0.03 0.00 71 1021.6
20260901093055 21 175 4.8 14.5 0.00 0.03 0.00 70 1021.7
20260901092554 21 184 6.4 14.5 0.00 0.03 0.00 70 1021.7
20260901092056 20 227 4.8 14.5 0.00 0.03 0.00 72 1021.8
20260901091605 20 203 6.4 12.9 0.00 0.03 0.00 71 1021.8
20260901091053 21 193 6.4 12.9 0.00 0.03 0.00 73 1021.8
20260901090552 21 192 4.8 12.9 0.00 0.03 0.00 73 1021.8
20260901090052 20 206 4.8 12.9 0.00 0.03 0.00 73 1021.8
20260901085551 20 176 4.8 12.9 0.00 0.03 0.00 74 1021.9
20260901085051 20 190 4.8 12.9 0.00 0.03 0.00 75 1021.8
20260901084549 20 180 6.4 12.9 0.00 0.03 0.00 75 1021.8
20260901084052 20 159 6.4 11.3 0.00 0.03 0.00 76 1021.9
20260901083549 20 207 6.4 9.7 0.00 0.03 0.00 75 1021.7
20260901083049 20 194 4.8 9.7 0.00 0.03 0.00 78 1021.8
20260901082546 19 183 3.2 9.7 0.00 0.03 0.00 79 1021.8
20260901082046 18 211 3.2 12.9 0.00 0.03 0.00 77 1021.9
20260901081550 18 230 6.4 12.9 0.00 0.03 0.00 79 1021.9
20260901081043 18 213 3.2 11.3 0.00 0.03 0.00 80 1021.9
20260901080542 18 200 4.8 12.9 0.00 0.03 0.00 81 1021.8
20260901080052 18 201 3.2 11.3 0.00 0.03 0.00 81 1021.8
20260901075542 18 201 4.8 11.3 0.00 0.03 0.00 83 1021.8
20260901075042 18 188 6.4 11.3 0.00 0.03 0.00 83 1021.8
20260901074548 18 171 3.2 11.3 0.00 0.03 0.00 85 1021.7
20260901074038 17 184 4.8 11.3 0.00 0.03 0.00 86 1021.7
20260901073541 17 179 4.8 11.3 0.00 0.03 0.00 87 1021.7
20260901073040 17 172 4.8 11.3 0.00 0.03 0.00 88 1021.7
20260901072535 16 182 6.4 11.3 0.00 0.03 0.00 89 1021.6
20260901072036 16 178 4.8 11.3 0.00 0.03 0.00 90 1021.6
20260901071533 16 184 4.8 9.7 0.00 0.03 0.00 91 1021.6
20260901071031 16 185 4.8 9.7 0.00 0.03 0.00 91 1021.6
20260901070530 16 182 3.2 11.3 0.00 0.03 0.00 92 1021.6
20260901070034 15 187 6.4 11.3 0.00 0.03 0.00 92 1021.7
20260901065530 15 219 3.2 8.0 0.00 0.03 0.00 93 1021.7
20260901065029 15 219 3.2 8.0 0.00 0.03 0.00 93 1021.7
20260901064531 14 220 4.8 8.0 0.00 0.03 0.00 93 1021.7
20260901064029 14 222 3.2 8.0 0.00 0.03 0.00 93 1021.7
20260901063528 14 222 3.2 8.0 0.00 0.03 0.00 93 1021.7
20260901063029 14 226 3.2 8.0 0.00 0.03 0.00 93 1021.7
20260901062527 14 227 3.2 8.0 0.00 0.03 0.00 93 1021.6
20260901062027 14 228 3.2 6.4 0.00 0.03 0.00 93 1021.5
20260901061526 13 232 3.2 6.4 0.00 0.03 0.00 93 1021.4
20260901061026 13 232 1.6 4.8 0.00 0.03 0.00 93 1021.3
20260901060525 13 232 1.6 4.8 0.00 0.03 0.00 93 1021.2
20260901060024 13 232 1.6 4.8 0.00 0.03 0.00 93 1021.2
20260901055527 13 232 1.6 4.8 0.00 0.03 0.00 93 1021.2
20260901055025 13 232 1.6 6.4 0.00 0.03 0.00 93 1021.1
20260901054522 13 232 3.2 6.4 0.00 0.03 0.00 93 1021.0
20260901054021 13 233 3.2 6.4 0.00 0.03 0.00 93 1020.7
20260901053521 13 234 4.8 6.4 0.00 0.03 0.00 93 1020.8
20260901053021 13 234 3.2 8.0 0.00 0.03 0.00 93 1020.7
20260901052520 13 234 3.2 8.0 0.00 0.03 0.00 93 1020.6
20260901052020 13 235 4.8 8.0 0.00 0.03 0.00 93 1020.7
20260901051529 13 237 3.2 6.4 0.00 0.03 0.00 93 1020.6
20260901051019 13 240 3.2 6.4 0.00 0.03 0.00 93 1020.6
20260901050520 13 241 1.6 4.8 0.00 0.03 0.00 93 1020.5
20260901050019 13 241 1.6 4.8 0.00 0.03 0.00 93 1020.5
20260901045518 13 241 1.6 3.2 0.00 0.03 0.00 93 1020.7
20260901045023 13 241 0.0 3.2 0.00 0.03 0.00 93 1020.6
20260901044520 13 241 0.0 0.0 0.00 0.03 0.00 93 1020.6
20260901044018 13 241 0.0 0.0 0.00 0.03 0.00 93 1020.7
20260901043518 13 241 0.0 0.0 0.00 0.03 0.00 93 1020.6
20260901043018 13 241 0.0 0.0 0.00 0.03 0.00 93 1020.6
20260901042518 13 241 0.0 0.0 0.00 0.03 0.00 93 1020.6
20260901042016 13 241 0.0 0.0 0.00 0.03 0.00 93 1020.5
20260901041536 13 241 0.0 4.8 0.00 0.03 0.00 93 1020.5
20260901041015 13 241 0.0 4.8 0.00 0.03 0.00 93 1020.4
20260901040515 13 241 0.0 3.2 0.00 0.03 0.00 93 1020.5
20260901040019 13 241 1.6 4.8 0.00 0.03 0.00 93 1020.5
20260901035515 13 241 1.6 4.8 0.00 0.05 0.00 93 1020.4
20260901035015 13 241 1.6 4.8 0.00 0.05 0.00 93 1020.4
20260901034513 13 241 1.6 4.8 0.00 0.05 0.00 92 1020.4
20260901034013 13 241 1.6 8.0 0.00 0.05 0.00 92 1020.4
20260901033513 13 241 3.2 8.0 0.00 0.05 0.00 92 1020.3
20260901033013 13 241 1.6 6.4 0.00 0.05 0.00 92 1020.2
20260901032513 13 241 3.2 6.4 0.00 0.05 0.00 92 1020.3
20260901032017 13 242 1.6 4.8 0.00 0.05 0.00 92 1020.2
20260901031513 13 242 1.6 6.4 0.00 0.05 0.00 92 1020.1
20260901031011 13 242 3.2 6.4 0.00 0.05 0.00 93 1020.1
20260901030511 13 242 3.2 6.4 0.00 0.05 0.00 92 1020.1
20260901030011 13 243 3.2 8.0 0.00 0.05 0.00 92 1020.1
20260901025511 13 243 3.2 8.0 0.00 0.25 0.00 92 1020.1
20260901025011 13 245 4.8 11.3 0.00 0.25 0.00 93 1020.2
20260901024511 13 247 4.8 8.0 0.00 0.25 0.00 93 1020.2
20260901024009 13 248 3.2 8.0 0.00 0.25 0.00 92 1020.0
20260901023509 13 248 3.2 4.8 0.00 0.25 0.00 93 1020.0
20260901023010 13 248 1.6 4.8 0.00 0.25 0.00 93 1019.9
20260901022512 13 248 1.6 4.8 0.00 0.25 0.00 93 1020.0
20260901022009 13 248 1.6 4.8 0.00 0.25 0.00 93 1019.9
20260901021512 13 248 1.6 3.2 0.00 0.25 0.00 93 1020.0
20260901021008 13 248 0.0 3.2 0.00 0.25 0.00 93 1020.0
20260901020509 12 248 0.0 3.2 0.00 0.25 0.00 93 1019.9
20260901020007 12 248 0.0 1.6 0.00 0.25 0.00 93 1019.9
20260901015508 12 248 0.0 1.6 0.00 0.41 0.00 93 1019.8
20260901015009 12 248 0.0 0.0 0.00 0.41 0.00 93 1019.7
20260901014516 12 248 0.0 1.6 0.00 0.41 0.00 93 1019.6
20260901014009 12 248 0.0 1.6 0.00 0.41 0.00 92 1019.7
20260901013505 12 248 0.0 1.6 0.00 0.41 0.00 93 1019.7
20260901013005 12 248 0.0 0.0 0.00 0.41 0.00 93 1019.6
20260901012504 12 248 0.0 0.0 0.00 0.41 0.00 92 1019.6
20260901012004 12 248 0.0 0.0 0.00 0.41 0.00 92 1019.6
20260901011504 12 248 0.0 1.6 0.00 0.41 0.00 92 1019.6
20260901011004 12 248 0.0 4.8 0.00 0.41 0.00 92 1019.6
20260901010503 12 248 1.6 4.8 0.00 0.41 0.00 92 1019.6
20260901010003 12 248 0.0 3.2 0.00 0.41 0.00 92 1019.5
20260901005504 12 248 0.0 0.0 0.00 0.66 0.00 92 1019.4
20260901005004 12 248 0.0 0.0 0.00 0.66 0.00 92 1019.5
20260901004502 12 248 0.0 0.0 0.00 0.66 0.00 92 1019.4